www.pogodaiklimat.ru

Погода и климат >> Архив погоды >> Кувейт >> Kuwait City


ПОГОДА в Kuwait City

  • Прогноз погоды в Kuwait City
  • Монитор погоды в Kuwait City
  • Климат города

АРХИВ ПОГОДЫ в Kuwait City

Время (UTC), дата Ветер
(напр.,м/с)
 
Видим.   Явления Облачность Т
(С)
Тd
(С)
f
(%)
Тe
(С)
Тes
(С)
Комфортность P
(гПа)
Po
(гПа)
Тmin
(С)
Tmax
(С)
R
(мм)
R24
(мм)
S
(см)
06 12.10 Ю 2-5
{6}
н/о н/о +36.2 +13.5 26 +37 +37 очень
жарко
1012.4 1012.0
09 12.10 СВ 3-5
{5}
н/о н/о +34.3 +23.0 52 +44 +44 опасность
перегрева
1011.5 1012.0
12 12.10 З 1-4
{6}
н/о н/о +34.9 +23.3 51 +45 +45 опасность
перегрева
1010.8 1011.0
15 12.10 ЮВ 2-3
{5}
н/о н/о +32.5 +24.0 61 +44 +44 опасность
перегрева
1011.1 1011.0
18 12.10 Ю 2-3
{5}
н/о н/о +32.2 +20.8 51 +39 +39 очень
душно
1012.1 1012.0
21 12.10 Ю 2-4
{5}
н/о н/о +31.4 +21.9 57 +40 +40 очень
душно
1012.4 1012.0 +29.7 +38.0
00 13.10 Ю 3-6
{6}
н/о н/о +28.4
03 13.10 Ю 2-5
{5}
н/о н/о +28.0
06 13.10 С 3-7
{10}
н/о н/о +29.8 +29.6 99 +54 +54 опасность
перегрева
1015.2 1015.0
09 13.10 ЮВ 2-4
{7}
н/о н/о +33.3 +22.8 54 +43 +43 опасность
перегрева
1014.4 1014.0
12 13.10 ЮВ 2-4
{7}
н/о н/о +33.3 +32.2 94 +69 +69 опасность
перегрева
1013.1 1013.0
15 13.10 СВ 1-3
{5}
н/о н/о +31.8
18 13.10 Ю 1-3
{6}
н/о н/о +31.4 +30.8 97 +61 +61 опасность
перегрева
1014.2 1014.0
21 13.10 Ю 2-5
{5}
н/о н/о +30.2 +27.6 +34.3
00 14.10 Ю 2-5
{5}
н/о н/о +29.0
03 14.10 Ю 1-2
{5}
н/о н/о +28.3
06 14.10 Ю 2-6
{7}
н/о н/о +32.9 +25.8 66 +48 +48 опасность
перегрева
1015.9 1016.0
09 14.10 З 2-6
{7}
н/о н/о +34.2 +26.9 66 +52 +52 опасность
перегрева
1014.4 1014.0
12 14.10 ЮВ 2-5
{7}
н/о н/о +33.7 +25.1 61 +48 +48 опасность
перегрева
1012.7 1013.0
15 14.10 ЮВ 1-3
{6}
н/о н/о +32.5 +25.8 68 +48 +48 опасность
перегрева
1012.6 1013.0
18 14.10 Ю 2-4
{6}
н/о н/о +32.5 +20.6 50 +40 +40 очень
душно
1013.8 1014.0
21 14.10 Ю 1-4
{6}
н/о н/о +31.4 +29.6 90 +56 +56 опасность
перегрева
1013.9 1014.0 +28.3 +37.3
00 15.10 Ю 2-5
{6}
н/о н/о +30.8
03 15.10 Ю 2-4
{6}
н/о н/о +29.0
06 15.10 СВ 9-14
{20}
н/о н/о +28.7 +16.4 47 +32 +32 душно 1018.5 1019.0
09 15.10 СВ 3-8
{15}
н/о н/о +33.1 +17.3 39 +37 +37 очень
душно
1015.8 1016.0
12 15.10 Ю 2-7
{15}
н/о н/о +34.6 +15.9 33 +37 +37 очень
душно
1014.0 1014.0
15 15.10 СВ 2-4
{6}
н/о н/о +31.3 +22.7 60 +41 +41 опасность
перегрева
1015.0 1015.0
18 15.10 В 1-4
{6}
н/о н/о +30.1 +27.7 87 +49 +49 опасность
перегрева
1015.4 1015.0
21 15.10 Ю 1-4
{4}
н/о н/о +30.1 +20.7 57 +37 +37 очень
душно
1014.7 1015.0 +27.9 +35.1
00 16.10 ЮЗ 1-3
{4}
н/о н/о +28.5 +16.8 49 +32 +32 душно 1014.2 1014.0
03 16.10 Ю 1-2
{4}
н/о н/о +27.7 +15.9 49 +31 +31 душно 1015.4 1015.0
06 16.10 ЮВ 2-3
{4}
н/о н/о +30.9 +20.0 52 +37 +37 очень
душно
1016.8 1017.0
09 16.10 В 3-4
{5}
н/о н/о +33.0 +17.4 39 +37 +37 очень
душно
1015.0 1015.0
12 16.10 В 2-4
{5}
н/о н/о +34.3 +14.1 30 +35 +35 очень
жарко
1013.5 1014.0
15 16.10 ЮВ 1-2
{5}
н/о н/о +32.2 +17.5 42 +36 +36 очень
душно
1013.5 1014.0
18 16.10 Ю 2-3
{5}
н/о н/о +32.2 +15.2 36 +34 +34 душно 1014.2 1014.0
21 16.10 Ю 1-4
{5}
н/о н/о +30.3 +13.9 37 +32 +32 жарко 1013.7 1014.0 +27.3 +35.8
00 17.10 Ю 1-3
{5}
н/о н/о +28.8 +15.6 45 +32 +32 душно 1013.1 1013.0
03 17.10 Ю 1-4
{4}
н/о н/о +27.6 +15.9 49 +31 +31 душно 1013.8 1014.0
06 17.10 ЮЗ 2-3
{5}
н/о н/о +32.5 +13.5 32 +34 +34 очень
жарко
1015.1 1015.0
09 17.10 СЗ 2-4
{5}
н/о н/о +35.9 +14.0 27 +37 +37 душно 1013.4 1013.0
12 17.10 В 2-3
{5}
н/о н/о +36.7 +10.6 21 +36 +36 очень
жарко
1011.7 1012.0
15 17.10 Ю 1-3
{5}
н/о н/о +33.1 +14.5 33 +35 +35 душно 1011.9 1012.0
18 17.10 Ю 2-5
{5}
н/о н/о +32.4 +14.5 34 +34 +34 очень
жарко
1012.7 1013.0
21 17.10 Ю 2-4
{5}
н/о н/о +30.2 +18.0 48 +35 +35 очень
душно
1012.7 1013.0 +27.6 +37.0
00 18.10 Ю 2-5
{9}
н/о н/о +28.4 +17.6 52 +33 +33 очень
душно
1012.4 1012.0
03 18.10 Ю 2-4
{5}
н/о н/о +27.2 +16.8 53 +31 +31 душно 1013.0 1013.0
06 18.10 Ю 2-5
{6}
н/о н/о +31.6 +16.2 40 +35 +35 очень
душно
1014.0 1014.0
09 18.10 СВ 3-5
{9}
н/о н/о +33.8 +17.0 37 +37 +37 очень
душно
1012.9 1013.0
12 18.10 ЮВ 2-4
{9}
н/о н/о +33.2 +20.2 46 +39 +39 очень
душно
1011.4 1011.0
15 18.10 Ю 1-3
{5}
н/о н/о +31.4 +18.8 47 +36 +36 очень
душно
1011.8 1012.0
18 18.10 Ю 2-4
{5}
н/о н/о +31.4 +15.1 37 +34 +34 душно 1012.8 1013.0
21 18.10 Ю 2-6
{6}
н/о н/о +29.2 +21.5 63 +37 +37 очень
душно
1013.2 1013.0 +27.2 +36.7
00 19.10 Ю 2-4
{8}
н/о н/о +27.9
03 19.10 Ю 2-4
{6}
н/о н/о +27.4

 

Местоположение метеостанции Kuwait City (Кувейт): широта 29.33 долгота 48.05 высота над уровнем моря 11 м.

В архиве по умолчанию представлена погода в Kuwait City за последнюю неделю. Архивные данные за месяц целиком и за предыдущие месяцы, начиная с января 2011 года, Вы можете получить, выбрав интересующий диапазон дат из раскрывающегося списка и нажав кнопку "Ввод!".


*Определитесь, кто Вы:
робот инопланетянин человек

Внимание! Время в таблицах - всемирное. Для получения местного времени необходимо прибавить поправку, которая в Kuwait City равна 3 ч.

Смотрите также архив погоды в соседних городах и на ближайших метеорологических станциях:

Погода в Al-Shuaiba (Кувейт) (5 км)
Погода в Experimental Farm (Кувейт) (12 км)
Погода в Kuwait (Кувейт) (14 км)
Погода в Failaka Island (Кувейт) (27 км)
Погода в Sulaibiya (Кувейт) (33 км)
Погода в Jahra (Кувейт) (37 км)
Погода в Sabriyah (Кувейт) (51 км)
Погода в Jal Aliyah (Кувейт) (55 км)
Погода в Juluiah Port (Кувейт) (56 км)
Погода в Minagish (Кувейт) (58 км)

Пояснения к столбцам:

Ветер - указаны скорость ветра в м/с - средняя за 10 мин, порывы в срок и между сроками (в фигурных скобках) и направление, откуда дует ветер: С - северный, СВ - северо-восточный, В - восточный, ЮВ - юго-восточный, Ю - южный, ЮЗ - юго-западный, З - западный, СЗ - северо-западный.
Видимость - горизонтальная дальность видимости в метрах или километрах. При видимости от 1 до 10 км при отсутствии осадков обычно наблюдается дымка, при ухудшении видимости до 1 км и менее - туман. В сухую погоду видимость может ухудшаться дымом, пылью или мглою.
Явления - указаны атмосферные явления, наблюдавшиеся в срок или в последний час перед сроком; фигурными скобками обозначены явления, наблюдавшиеся между сроками (за 1-3 часа до срока); квадратными скобками обозначены град или гололедные отложения с указанием их диаметра в мм.
Облачность - указаны через наклонную черту общая и нижняя облачность в баллах и высота нижней границы облаков в метрах; квадратными скобками обозначены формы облаков: Ci - перистые, Cs - перисто-слоистые, Cc - перисто-кучевые, Ac - высококучевые, As - высокослоистые, Sc - слоисто-кучевые, Ns - слоисто-дождевые, Cu - кучевые, Cb - кучево-дождевые. Подробнее классификацию облаков см. в Атласе облаков (PDF).
T - Температура воздуха - температура, измеренная на высоте 2 м над землей.
Td - Температура точки росы - температура, при понижении до которой содержащийся в воздухе водяной пар достигнет насыщения.
f - Относительная влажность воздуха - влажноcть воздуха, измеренная на высоте 2 м над землей.
Te - Эффективная температура - температура, которую ощущает одетый по сезону человек в тени. Характеристика душности погоды. При расчете учитывается влияние влажности воздуха и скорости ветра на теплоощущения человека.
Tes - Эффективная температура на солнце - температура, которую ощущает человек, с поправкой на солнечный нагрев. Характеристика знойности погоды. Зависит от высоты солнца над горизонтом, облачности и скорости ветра. Ночью, в пасмурную погоду, а также при ветре 12 м/с и более поправка равна нулю.
P - Атмосферное давление - приведенное к уровню моря атмосферное давление.
Po - Атмосферное давление - измеренное на уровне метеостанции атмосферное давление.
Tmin - Минимальная температура - минимум температуры воздуха на высоте 2 м над землей.
Tmax - Максимальная температура - максимум температуры воздуха на высоте 2 м над землей.
R - Количество осадков - Количество выпавших осадков за период времени, мм. При наведении курсора мыши на число - период времени, за который выпало указанное количество осадков.
R24 - Количество осадков - Количество выпавших осадков за 24 часа, мм.
S - Снежный покров - Высота снежного покрова, см. При наведении курсора мыши на число - состояние снежного покрова и степень покрытия местности в баллах.